Regional Weather Roundup
Issued by NWS Binghamton, NY

Home | Current Version | Previous Version | Text Only | Print | Product List | Glossary On
Versions: 1 2 3 4 5 6 7 8 9 10 11 12 13 14 15 16 17 18 19 20 21 22 23 24 25 26 27 28 29 30 31 32 33 34 35 36 37 38 39 40 41 42 43 44 45 46 47 48 49
000
ASUS41 KBGM 011210
RWRBGM
RWRBGM
BINGHAMTON REGIONAL WEATHER ROUNDUP
NATIONAL WEATHER SERVICE BINGHAMTON NY
700 AM EST SUN MAR 01 2015

Note: "fair" indicates few or no clouds below 12,000 feet with no
significant weather and/or obstructions to visibility.

* = Station(s) that does not report precipitation, such as rain,
snow, etc, also no thunder or fog.

!NYZ009-015>018-022>025-036-037-044>046-055>057-062-011300
...CENTRAL NEW YORK...

CITY           SKY/WX    TMP DP  RH WIND       PRES   REMARKS
BINGHAMTON     SNOW      11   9  92 SE7       30.46F VSB 1/2 WCI   0
CORTLAND       LGT SNOW  14  12  92 NE5       30.50F WCI   6
DANSVILLE      LGT SNOW  17  13  84 SE5       30.46F FOG     WCI  10
ELMIRA         LGT SNOW  11   8  88 CALM      30.50F VSB 3/4
ITHACA         LGT SNOW  16  12  84 SE10      30.49F FOG     WCI   4
MONTICELLO     NOT AVBL
NORWICH        LGT SNOW   3  -2  78 CALM      30.54F
ONEONTA        CLEAR     12   1  62 CALM      30.47F
PENN YAN       LGT SNOW  17  13  84 S12       30.47F FOG     WCI   4
ROME           CLOUDY     9   1  70 SE8       30.57F WCI  -3
SIDNEY         LGT SNOW   5   0  78 CALM      30.55F
SYRACUSE       LGT SNOW   4  -1  78 E6        30.52F FOG     WCI  -6
$$

!PAZ038>040-043-044-047-048-072-011300
...NORTHEAST PENNSYLVANIA...

CITY           SKY/WX    TMP DP  RH WIND       PRES   REMARKS
HAZLETON       LGT SNOW  18  12  79 MISG      30.52F
SCRANTON       CLOUDY    14   8  77 CALM      30.54F HAZE
TOWANDA*         N/A     12   9  85 CALM      30.55F VSB 3/4
$$
&&
KEY
WCI = WIND CHILL INDEX
VSB = VISIBILITY
HX  = HEAT INDEX
$$



USA.gov is the U.S. government's official web portal to all federal, state and local government web resources and services.